Location: Dos Palmas
(32.4468°N, 116.8732°W)
Time: 04:03:08
(UTC+00:00)

ERS-1 Rocket - Pass Details

Date: 20 June 2021
Orbit: 752 x 758 km, 98.4° (Epoch: 29 July)

Event Time Altitude Azimuth Distance (km) Brightness Sun altitude
Exits shadow 05:24:12 62° 97° (E) 854 2.9 -24.3°
Maximum altitude 05:24:32 63° 75° (ENE) 842 3.0 -24.3°
Drops below altitude 10° 05:29:31 10° 355° (N) 2,292 6.2 -24.9°
Sets 05:31:50 0° 352° (N) 3,220 7.2 -25.2°
